TimeCDT,TemperatureF,Dew PointF,Humidity,Sea Level PressureIn,VisibilityMPH,Wind Direction,Wind SpeedMPH,Gust SpeedMPH,PrecipitationIn,Events,Conditions,WindDirDegrees,DateUTC
12:15 AM,64.4,60.8,88,30.06,5.0,Calm,Calm,-,N/A,,Clear,0,2013-08-29 05:15:00
12:35 AM,62.6,60.8,94,30.06,5.0,Calm,Calm,-,N/A,,Clear,0,2013-08-29 05:35:00
12:55 AM,62.6,60.8,94,30.06,4.0,Calm,Calm,-,N/A,,Clear,0,2013-08-29 05:55:00
1:55 AM,64.4,62.6,94,30.06,7.0,Calm,Calm,-,N/A,,Clear,0,2013-08-29 06:55:00
2:35 AM,64.4,60.8,88,30.06,7.0,Calm,Calm,-,N/A,,Clear,0,2013-08-29 07:35:00
2:55 AM,62.6,60.8,94,30.06,7.0,Calm,Calm,-,N/A,,Clear,0,2013-08-29 07:55:00
3:15 AM,64.4,60.8,88,30.06,7.0,Calm,Calm,-,N/A,,Clear,0,2013-08-29 08:15:00
3:35 AM,62.6,60.8,94,30.06,4.0,Calm,Calm,-,N/A,,Clear,0,2013-08-29 08:35:00
3:55 AM,62.6,60.8,94,30.06,4.0,Calm,Calm,-,N/A,,Clear,0,2013-08-29 08:55:00
4:15 AM,62.6,59.0,88,30.07,4.0,Calm,Calm,-,N/A,,Clear,0,2013-08-29 09:15:00
4:35 AM,62.6,60.8,94,30.07,7.0,Calm,Calm,-,N/A,,Clear,0,2013-08-29 09:35:00
4:55 AM,60.8,59.0,94,30.07,4.0,Calm,Calm,-,N/A,,Clear,0,2013-08-29 09:55:00
5:15 AM,60.8,59.0,94,30.07,7.0,Calm,Calm,-,N/A,,Clear,0,2013-08-29 10:15:00
5:35 AM,62.6,60.8,94,30.07,3.0,Calm,Calm,-,N/A,,Clear,0,2013-08-29 10:35:00
5:55 AM,60.8,59.0,94,30.08,10.0,Calm,Calm,-,N/A,,Clear,0,2013-08-29 10:55:00
6:15 AM,60.8,59.0,94,30.08,3.0,Calm,Calm,-,N/A,,Clear,0,2013-08-29 11:15:00
6:35 AM,60.8,59.0,94,30.09,2.5,Calm,Calm,-,N/A,,Clear,0,2013-08-29 11:35:00
6:55 AM,60.8,59.0,94,30.09,7.0,Calm,Calm,-,N/A,,Clear,0,2013-08-29 11:55:00
7:15 AM,62.6,60.8,94,30.09,10.0,Calm,Calm,-,N/A,,Clear,0,2013-08-29 12:15:00
7:35 AM,64.4,60.8,88,30.09,10.0,Calm,Calm,-,N/A,,Clear,0,2013-08-29 12:35:00
7:55 AM,66.2,62.6,88,30.10,10.0,Calm,Calm,-,N/A,,Clear,0,2013-08-29 12:55:00
8:15 AM,69.8,62.6,78,30.10,10.0,Calm,Calm,-,N/A,,Clear,0,2013-08-29 13:15:00
8:35 AM,71.6,64.4,78,30.10,10.0,Calm,Calm,-,N/A,,Clear,0,2013-08-29 13:35:00
8:55 AM,73.4,62.6,69,30.10,10.0,Calm,Calm,-,N/A,,Clear,0,2013-08-29 13:55:00
9:15 AM,77.0,62.6,61,30.10,10.0,Calm,Calm,-,N/A,,Clear,0,2013-08-29 14:15:00
9:35 AM,77.0,62.6,61,30.10,10.0,Calm,Calm,-,N/A,,Clear,0,2013-08-29 14:35:00
9:55 AM,78.8,64.4,61,30.10,10.0,Calm,Calm,-,N/A,,Clear,0,2013-08-29 14:55:00
10:15 AM,80.6,64.4,58,30.10,10.0,Calm,Calm,-,N/A,,Clear,0,2013-08-29 15:15:00
10:35 AM,80.6,64.4,58,30.10,10.0,SSE,3.5,-,N/A,,Clear,150,2013-08-29 15:35:00
10:55 AM,82.4,62.6,51,30.10,10.0,SE,5.8,-,N/A,,Clear,140,2013-08-29 15:55:00
11:15 AM,82.4,62.6,51,30.09,10.0,SSW,5.8,-,N/A,,Clear,200,2013-08-29 16:15:00
11:35 AM,84.2,62.6,48,30.09,10.0,SE,5.8,-,N/A,,Clear,130,2013-08-29 16:35:00
12:15 PM,86.0,62.6,45,30.08,10.0,ESE,4.6,-,N/A,,Clear,120,2013-08-29 17:15:00
12:55 PM,86.0,60.8,43,30.07,10.0,SSE,8.1,-,N/A,,Clear,160,2013-08-29 17:55:00
1:15 PM,86.0,60.8,43,30.07,10.0,South,6.9,-,N/A,,Clear,170,2013-08-29 18:15:00
1:35 PM,87.8,60.8,40,30.06,10.0,SE,6.9,-,N/A,,Clear,140,2013-08-29 18:35:00
1:55 PM,87.8,60.8,40,30.05,10.0,SSE,8.1,-,N/A,,Scattered Clouds,150,2013-08-29 18:55:00
2:15 PM,87.8,60.8,40,30.05,10.0,South,6.9,-,N/A,,Scattered Clouds,170,2013-08-29 19:15:00
2:35 PM,87.8,60.8,40,30.04,10.0,South,5.8,-,N/A,,Scattered Clouds,170,2013-08-29 19:35:00
2:55 PM,87.8,64.4,46,30.03,10.0,SE,8.1,-,N/A,,Scattered Clouds,140,2013-08-29 19:55:00
3:15 PM,87.8,62.6,43,30.03,10.0,ESE,8.1,-,N/A,,Clear,120,2013-08-29 20:15:00
3:35 PM,86.0,62.6,45,30.03,10.0,ESE,10.4,-,N/A,,Clear,120,2013-08-29 20:35:00
3:55 PM,86.0,62.6,45,30.03,10.0,ESE,9.2,-,N/A,,Clear,120,2013-08-29 20:55:00
4:15 PM,86.0,62.6,45,30.03,10.0,SE,8.1,-,N/A,,Clear,130,2013-08-29 21:15:00
4:35 PM,84.2,62.6,48,30.02,10.0,SE,6.9,-,N/A,,Clear,130,2013-08-29 21:35:00
4:55 PM,84.2,62.6,48,30.02,10.0,ESE,9.2,-,N/A,,Clear,120,2013-08-29 21:55:00
5:15 PM,82.4,64.4,54,30.02,10.0,ESE,8.1,-,N/A,,Clear,120,2013-08-29 22:15:00
5:35 PM,82.4,64.4,54,30.02,10.0,SE,8.1,-,N/A,,Clear,140,2013-08-29 22:35:00
5:55 PM,82.4,64.4,54,30.01,10.0,SE,5.8,-,N/A,,Clear,130,2013-08-29 22:55:00
6:35 PM,80.6,62.6,54,30.01,10.0,ESE,6.9,-,N/A,,Clear,120,2013-08-29 23:35:00
6:55 PM,78.8,62.6,57,30.01,10.0,SE,5.8,-,N/A,,Clear,130,2013-08-29 23:55:00
7:15 PM,77.0,62.6,61,30.01,10.0,ESE,4.6,-,N/A,,Clear,120,2013-08-30 00:15:00
9:15 PM,71.6,62.6,73,30.00,10.0,Calm,Calm,-,N/A,,Clear,0,2013-08-30 02:15:00
10:15 PM,69.8,62.6,78,30.00,10.0,Calm,Calm,-,N/A,,Clear,0,2013-08-30 03:15:00
10:35 PM,68.0,62.6,83,30.00,10.0,SSE,3.5,-,N/A,,Clear,160,2013-08-30 03:35:00
10:55 PM,68.0,62.6,83,30.00,10.0,Calm,Calm,-,N/A,,Clear,0,2013-08-30 03:55:00
11:15 PM,68.0,62.6,83,30.00,10.0,Calm,Calm,-,N/A,,Clear,0,2013-08-30 04:15:00